K4VI Weather Reports


Display with metric or nautical units.
time (UTC)temp
F
wind
direction
speed
MPH
gust
MPH
rain 1hr
in
rain 24hr
in
rain mn
in
humidity
%
barometer
mb
20260505153003 36 98 3.0 7.0 0.00 0.00 0.00 85 1025.9
20260505152718 36 98 3.0 7.0 0.00 0.00 0.00 85 1025.9
20260505152003 36 94 3.0 7.0 0.00 0.00 0.00 85 1025.9
20260505151503 36 98 3.0 8.0 0.00 0.00 0.00 85 1025.9
20260505151217 36 97 3.0 8.0 0.00 0.00 0.00 86 1026.0
20260505150503 36 87 3.0 7.0 0.00 0.00 0.00 86 1026.0
20260505140503 36 96 2.0 6.0 0.00 0.00 0.00 86 1026.4
20260505125003 34 0 0.0 0.0 0.00 0.00 0.00 89 1025.9
20260505124719 34 0 0.0 0.0 0.00 0.00 0.00 88 1026.0
20260505124003 34 0 0.0 0.0 0.00 0.00 0.00 88 1025.8
20260505123719 34 0 0.0 0.0 0.00 0.00 0.00 88 1025.8
20260505123003 33 0 0.0 0.0 0.00 0.00 0.00 88 1025.6
20260505122503 33 0 0.0 0.0 0.00 0.00 0.00 87 1025.7
20260505122003 33 0 0.0 0.0 0.00 0.00 0.00 87 1025.6
20260505121503 34 0 0.0 0.0 0.00 0.00 0.00 87 1025.5
20260505121003 34 0 0.0 0.0 0.00 0.00 0.00 86 1025.4
20260505120503 34 0 0.0 0.0 0.00 0.00 0.00 86 1025.6
20260505120004 34 0 0.0 0.0 0.00 0.00 0.00 86 1025.6
20260505115503 34 0 0.0 0.0 0.00 0.00 0.00 86 1025.6
20260505115003 34 0 0.0 0.0 0.00 0.00 0.00 86 1025.4
20260505114503 35 0 0.0 0.0 0.00 0.00 0.00 86 1025.5
20260505114003 35 0 0.0 0.0 0.00 0.00 0.00 86 1025.5
20260505113503 35 0 0.0 0.0 0.00 0.00 0.00 86 1025.5
20260505113218 35 0 0.0 0.0 0.00 0.00 0.00 85 1025.6
20260505112503 35 0 0.0 0.0 0.00 0.00 0.00 85 1025.7
20260505112003 35 0 0.0 0.0 0.00 0.00 0.00 85 1025.7
20260505111503 35 0 0.0 0.0 0.00 0.00 0.00 84 1025.8
20260505111003 35 18 0.0 2.0 0.00 0.00 0.00 84 1025.9
20260505110718 36 18 0.0 2.0 0.00 0.00 0.00 84 1025.9
20260505102003 37 0 0.0 0.0 0.00 0.00 0.00 81 1026.4
20260505101503 37 0 0.0 0.0 0.00 0.00 0.00 81 1026.2
20260505101220 37 0 0.0 0.0 0.00 0.00 0.00 80 1026.2
20260505100503 37 0 0.0 0.0 0.00 0.00 0.00 80 1026.2
20260505100003 37 0 0.0 0.0 0.00 0.00 0.00 80 1026.1
20260505095503 37 0 0.0 0.0 0.00 0.00 0.00 79 1026.3
20260505095003 37 0 0.0 0.0 0.00 0.00 0.00 79 1026.3
20260505094503 37 0 0.0 0.0 0.00 0.00 0.00 79 1026.3
20260505094003 38 0 0.0 0.0 0.00 0.00 0.00 79 1026.4
20260505093503 38 29 0.0 1.0 0.00 0.00 0.00 79 1026.2
20260505093003 38 30 0.0 2.0 0.00 0.00 0.00 78 1026.2
20260505092503 38 26 0.0 2.0 0.00 0.00 0.00 78 1026.3
20260505092003 38 20 0.0 1.0 0.00 0.00 0.00 78 1026.4
20260505091503 38 19 0.0 1.0 0.00 0.00 0.00 78 1026.5
20260505091003 38 21 0.0 1.0 0.00 0.00 0.00 77 1026.4
20260505090503 38 21 0.0 2.0 0.00 0.00 0.00 77 1026.4
20260505090217 38 20 0.0 2.0 0.00 0.00 0.00 77 1026.3
20260505085503 38 20 0.0 2.0 0.00 0.00 0.00 76 1026.3
20260505085003 38 20 0.0 2.0 0.00 0.00 0.00 76 1026.2
20260505084503 38 20 0.0 2.0 0.00 0.00 0.00 75 1026.2
20260505084003 38 19 0.0 1.0 0.00 0.00 0.00 74 1026.5
20260505083503 39 19 0.0 2.0 0.00 0.00 0.00 74 1026.5
20260505083003 39 19 0.0 2.0 0.00 0.00 0.00 72 1026.6
20260505082718 39 0 0.0 0.0 0.00 0.00 0.00 73 1026.6
20260505082003 39 0 0.0 0.0 0.00 0.00 0.00 72 1026.6
20260505081719 39 0 0.0 0.0 0.00 0.00 0.00 72 1026.7
20260505081217 40 0 0.0 0.0 0.00 0.00 0.00 70 1026.8
20260505080503 40 0 0.0 0.0 0.00 0.00 0.00 70 1026.7
20260505080003 40 76 0.0 2.0 0.00 0.00 0.00 70 1026.7
20260505075503 40 81 0.0 2.0 0.00 0.00 0.00 67 1026.8
20260505075003 40 83 0.0 2.0 0.00 0.00 0.00 64 1026.8
20260505074716 40 83 0.0 2.0 0.00 0.00 0.00 63 1026.8
20260505074220 40 83 0.0 1.0 0.00 0.00 0.00 62 1026.9
20260505073503 41 83 1.0 3.0 0.00 0.00 0.00 63 1027.0
20260505073003 41 83 0.0 2.0 0.00 0.00 0.00 59 1026.9
20260505072503 41 83 0.0 2.0 0.00 0.00 0.00 61 1027.0
20260505072003 42 87 0.0 2.0 0.00 0.00 0.00 60 1027.0
20260505071503 42 87 0.0 2.0 0.00 0.00 0.00 57 1027.1
20260505071003 43 0 0.0 0.0 0.00 0.00 0.00 60 1027.1
20260505070503 43 0 0.0 0.0 0.00 0.00 0.00 56 1027.3
20260505070003 44 0 0.0 0.0 0.00 0.00 0.00 54 1027.2
20260505065503 44 0 0.0 0.0 0.00 0.00 0.00 53 1027.1
20260505065003 44 0 0.0 0.0 0.00 0.00 0.00 52 1027.0
20260505064503 45 91 0.0 4.0 0.00 0.00 0.00 51 1027.1
20260505064003 45 63 1.0 4.0 0.00 0.00 0.00 46 1027.0
20260505063718 46 39 1.0 4.0 0.00 0.00 0.00 46 1027.0
20260505063221 46 246 1.0 4.0 0.00 0.00 0.00 41 1027.0
20260505062503 46 299 1.0 3.0 0.00 0.00 0.00 40 1026.9
20260505062003 46 326 2.0 9.0 0.00 0.00 0.00 40 1026.8
20260505061503 46 318 2.0 9.0 0.00 0.00 0.00 39 1027.1
20260505061003 46 313 2.0 7.0 0.00 0.00 0.00 39 1027.1
20260505060503 46 325 2.0 9.0 0.00 0.00 0.00 39 1027.1
20260505060219 46 326 2.0 9.0 0.00 0.00 0.00 39 1027.1
20260505055717 46 327 2.0 9.0 0.00 0.00 0.00 40 1027.0
20260505055220 46 316 2.0 9.0 0.00 0.00 0.00 40 1027.0
20260505054503 47 315 4.0 12.0 0.00 0.00 0.00 40 1027.2
20260505054003 47 318 5.0 14.0 0.00 0.00 0.00 40 1027.2
20260505053503 47 321 6.0 14.0 0.00 0.00 0.00 40 1027.0
20260505053003 47 321 6.0 13.0 0.00 0.00 0.00 41 1027.0
20260505052503 47 309 7.0 15.0 0.00 0.00 0.00 42 1027.0
20260505052003 47 311 7.0 15.0 0.00 0.00 0.00 42 1027.0
20260505051503 47 311 6.0 12.0 0.00 0.00 0.00 43 1027.0
20260505051003 47 309 5.0 16.0 0.00 0.00 0.00 44 1026.9
20260505050503 47 316 6.0 16.0 0.00 0.00 0.00 44 1027.0
20260505041503 47 320 7.0 14.0 0.00 0.00 0.00 48 1026.9
20260505041003 47 319 6.0 17.0 0.00 0.00 0.00 48 1026.8
20260505040503 47 313 6.0 17.0 0.00 0.00 0.00 48 1026.8
20260505040220 47 310 6.0 17.0 0.00 0.00 0.00 48 1026.7
20260505035718 47 278 4.0 13.0 0.00 0.00 0.00 48 1026.6
20260505035003 47 298 4.0 21.0 0.00 0.00 0.00 47 1026.6
20260505034503 47 315 6.0 21.0 0.00 0.00 0.00 47 1026.4
20260505034003 47 314 6.0 20.0 0.00 0.00 0.00 47 1026.5
20260505033720 47 311 5.0 20.0 0.00 0.00 0.00 47 1026.4
20260505033003 47 288 4.0 18.0 0.00 0.00 0.00 47 1026.4
20260505032503 47 299 6.0 18.0 0.00 0.00 0.00 47 1026.2
20260505032003 47 305 7.0 16.0 0.00 0.00 0.00 47 1026.1
20260505031503 47 301 7.0 15.0 0.00 0.00 0.00 47 1026.0
20260505031220 47 300 7.0 16.0 0.00 0.00 0.00 47 1026.0
20260505030503 47 305 7.0 16.0 0.00 0.00 0.00 47 1026.1
20260505030003 47 306 6.0 15.0 0.00 0.00 0.00 47 1025.9
20260505025503 47 299 6.0 15.0 0.00 0.00 0.00 47 1026.0
20260505025003 47 305 6.0 14.0 0.00 0.00 0.00 48 1025.9
20260505024503 47 311 7.0 15.0 0.00 0.00 0.00 48 1025.8
20260505024003 48 311 6.0 15.0 0.00 0.00 0.00 47 1025.6
20260505023503 48 307 6.0 13.0 0.00 0.00 0.00 47 1025.7
20260505023004 48 305 7.0 15.0 0.00 0.00 0.00 47 1025.6
20260505022503 48 303 8.0 20.0 0.00 0.00 0.00 47 1025.7
20260505022003 48 308 8.0 20.0 0.00 0.00 0.00 47 1025.7
20260505021503 48 307 8.0 19.0 0.00 0.00 0.00 47 1025.4
20260505021003 48 299 7.0 14.0 0.00 0.00 0.00 47 1025.3
20260505020718 48 302 8.0 19.0 0.00 0.00 0.00 47 1025.2
20260505020221 48 303 10.0 19.0 0.00 0.00 0.00 46 1025.3
20260505015503 48 300 8.0 16.0 0.00 0.00 0.00 47 1025.4
20260505015217 48 304 8.0 14.0 0.00 0.00 0.00 47 1025.5
20260505014503 48 296 8.0 14.0 0.00 0.00 0.00 47 1025.4
20260505014003 48 291 8.0 17.0 0.00 0.00 0.00 47 1025.4
20260505013503 48 295 8.0 17.0 0.00 0.00 0.00 47 1025.6
20260505013003 48 295 9.0 19.0 0.00 0.00 0.00 47 1025.5
20260505012503 48 296 8.0 19.0 0.00 0.00 0.00 46 1025.4
20260505012003 48 306 7.0 17.0 0.00 0.00 0.00 47 1025.5
20260505011504 48 308 6.0 17.0 0.00 0.00 0.00 46 1025.5
20260505011003 48 306 7.0 16.0 0.00 0.00 0.00 46 1025.5
20260505010503 49 308 8.0 16.0 0.00 0.00 0.00 46 1025.5
20260505010003 49 300 8.0 14.0 0.00 0.00 0.00 46 1025.6
20260505005503 49 299 6.0 14.0 0.00 0.00 0.00 46 1025.6
20260505005004 49 297 6.0 14.0 0.00 0.00 0.00 46 1025.6
20260505004503 49 295 6.0 14.0 0.00 0.00 0.00 46 1025.5
20260505004003 49 313 6.0 15.0 0.00 0.00 0.00 47 1025.5
20260505003503 49 314 6.0 15.0 0.00 0.00 0.00 47 1025.4
20260505003003 49 303 6.0 14.0 0.00 0.00 0.00 48 1025.6
20260505002503 49 300 7.0 15.0 0.00 0.00 0.00 49 1025.6
20260505002221 49 303 8.0 16.0 0.00 0.00 0.00 49 1025.6
20260505001503 49 307 8.0 19.0 0.00 0.00 0.00 49 1025.6
20260505001217 49 306 8.0 19.0 0.00 0.00 0.00 49 1025.8
20260505000503 49 297 8.0 17.0 0.00 0.00 0.00 49 1025.8
20260505000003 49 302 7.0 16.0 0.00 0.00 0.00 48 1025.8
20260504235503 50 306 7.0 16.0 0.00 0.00 0.00 48 1026.0
20260504235003 50 302 7.0 15.0 0.00 0.00 0.00 47 1026.0
20260504234503 50 303 8.0 16.0 0.00 0.00 0.00 48 1025.9
20260504234220 50 307 8.0 16.0 0.00 0.00 0.00 48 1026.0
20260504233503 50 301 4.0 12.0 0.00 0.00 0.00 46 1026.0
20260504233003 50 295 5.0 13.0 0.00 0.00 0.00 45 1025.9
20260504232503 50 283 6.0 20.0 0.00 0.00 0.00 45 1025.8
20260504232003 50 274 5.0 20.0 0.00 0.00 0.00 45 1025.8
20260504231719 50 292 6.0 20.0 0.00 0.00 0.00 44 1025.7
20260504231003 51 305 8.0 18.0 0.00 0.00 0.00 44 1025.8
20260504230503 51 300 7.0 17.0 0.00 0.00 0.00 43 1025.7
20260504230003 51 292 5.0 11.0 0.00 0.00 0.00 42 1025.5
20260504225503 51 294 4.0 11.0 0.00 0.00 0.00 41 1025.4
20260504225003 51 306 4.0 9.0 0.00 0.00 0.00 41 1025.4
20260504224503 51 303 5.0 10.0 0.00 0.00 0.00 42 1025.5
20260504224220 51 302 5.0 12.0 0.00 0.00 0.00 43 1025.4
20260504223503 51 305 4.0 12.0 0.00 0.00 0.00 44 1025.5
20260504223003 50 303 6.0 12.0 0.00 0.00 0.00 45 1025.6
20260504222503 50 307 7.0 15.0 0.00 0.00 0.00 45 1025.7
20260504222217 50 307 7.0 15.0 0.00 0.00 0.00 45 1025.6
20260504221503 51 294 7.0 14.0 0.00 0.00 0.00 44 1025.8
20260504221003 52 288 8.0 14.0 0.00 0.00 0.00 42 1025.7
20260504220503 52 287 8.0 22.0 0.00 0.00 0.00 39 1025.6
20260504220003 53 291 7.0 22.0 0.00 0.00 0.00 37 1025.8
20260504215503 53 310 5.0 16.0 0.00 0.00 0.00 37 1025.8
20260504215003 53 325 6.0 16.0 0.00 0.00 0.00 36 1026.0
20260504214503 52 320 6.0 16.0 0.00 0.00 0.00 35 1026.0
20260504214004 52 316 7.0 19.0 0.00 0.00 0.00 38 1026.2
20260504213503 52 315 9.0 19.0 0.00 0.00 0.00 37 1026.1
20260504213003 52 315 6.0 15.0 0.00 0.00 0.00 37 1026.1
20260504212720 52 314 6.0 16.0 0.00 0.00 0.00 36 1026.1
20260504212003 53 282 6.0 16.0 0.00 0.00 0.00 36 1026.3
20260504211503 53 261 6.0 18.0 0.00 0.00 0.00 36 1026.4
20260504211003 53 303 7.0 18.0 0.00 0.00 0.00 36 1026.2
20260504210503 53 305 7.0 20.0 0.00 0.00 0.00 37 1026.5
20260504210003 53 287 6.0 20.0 0.00 0.00 0.00 36 1026.7
20260504205503 52 304 5.0 12.0 0.00 0.00 0.00 37 1026.6
20260504205003 52 323 5.0 16.0 0.00 0.00 0.00 38 1026.7
20260504204503 51 298 5.0 16.0 0.00 0.00 0.00 37 1026.6
20260504204216 51 278 5.0 14.0 0.00 0.00 0.00 38 1026.7
20260504203503 51 266 6.0 15.0 0.00 0.00 0.00 39 1027.1
20260504203003 51 264 4.0 15.0 0.00 0.00 0.00 41 1027.3
20260504202504 51 270 4.0 18.0 0.00 0.00 0.00 43 1027.2
20260504202003 51 193 5.0 18.0 0.00 0.00 0.00 43 1027.3
20260504201503 51 145 4.0 10.0 0.00 0.00 0.00 44 1027.2
20260504201003 51 132 5.0 18.0 0.00 0.00 0.00 47 1027.3
20260504200503 51 121 7.0 18.0 0.00 0.00 0.00 46 1027.4
20260504200003 52 127 7.0 13.0 0.00 0.00 0.00 49 1027.4
20260504195503 52 128 6.0 12.0 0.00 0.00 0.00 49 1027.6
20260504195003 52 123 7.0 14.0 0.00 0.00 0.00 50 1027.5
20260504194503 52 135 6.0 14.0 0.00 0.00 0.00 54 1027.5
20260504194003 51 156 6.0 12.0 0.00 0.00 0.00 52 1027.7
20260504193503 52 200 6.0 13.0 0.00 0.00 0.00 49 1027.7
20260504193218 53 249 5.0 13.0 0.00 0.00 0.00 46 1027.8
20260504192503 53 305 5.0 13.0 0.00 0.00 0.00 38 1027.6
20260504192003 53 290 5.0 13.0 0.00 0.00 0.00 37 1027.8
20260504191717 53 289 6.0 15.0 0.00 0.00 0.00 40 1027.9
20260504191003 51 308 9.0 16.0 0.00 0.00 0.00 39 1027.8
20260504190504 51 312 8.0 15.0 0.00 0.00 0.00 42 1027.8
20260504190003 51 308 6.0 17.0 0.00 0.00 0.00 44 1027.8
20260504185503 50 301 8.0 17.0 0.00 0.00 0.00 46 1027.9
20260504185217 49 305 8.0 17.0 0.00 0.00 0.00 46 1028.0
20260504184720 50 309 9.0 22.0 0.00 0.00 0.00 46 1028.0
20260504184003 50 311 10.0 22.0 0.00 0.00 0.00 45 1028.2
20260504183503 51 300 7.0 19.0 0.00 0.00 0.00 47 1028.2
20260504183003 50 309 9.0 21.0 0.00 0.00 0.00 45 1028.3
20260504182503 49 309 11.0 37.0 0.00 0.00 0.00 45 1028.4
20260504182004 49 286 10.0 37.0 0.00 0.00 0.00 46 1028.6
20260504181503 50 270 10.0 19.0 0.00 0.00 0.00 47 1028.6
20260504181003 51 251 9.0 19.0 0.00 0.00 0.00 37 1028.3
20260504180503 52 251 8.0 17.0 0.00 0.00 0.00 35 1028.1
20260504180003 53 287 6.0 17.0 0.00 0.00 0.00 35 1028.0
20260504175719 53 283 5.0 14.0 0.00 0.00 0.00 35 1027.9
20260504175004 52 300 6.0 19.0 0.00 0.00 0.00 36 1027.9
20260504174503 53 314 7.0 19.0 0.00 0.00 0.00 35 1028.1
20260504174003 53 300 6.0 15.0 0.00 0.00 0.00 36 1028.0
20260504173503 53 278 5.0 11.0 0.00 0.00 0.00 35 1028.2
20260504173003 53 287 5.0 12.0 0.00 0.00 0.00 35 1028.3
20260504172503 53 272 5.0 12.0 0.00 0.00 0.00 36 1028.2
20260504172004 52 265 5.0 14.0 0.00 0.00 0.00 39 1028.2
20260504171503 52 273 6.0 14.0 0.00 0.00 0.00 39 1028.3
20260504171221 51 282 5.0 14.0 0.00 0.00 0.00 40 1028.3
20260504170503 50 297 4.0 14.0 0.00 0.00 0.00 40 1028.5
20260504170217 50 297 6.0 14.0 0.00 0.00 0.00 40 1028.5